GW6319 Weather Reports


time (UTC)temp
F
wind
direction
speed
knots
gust
knots
rain 1hr
in
rain 24hr
in
rain mn
in
humidity
%
barometer
mb
20260510173110 87 282 3.5 3.5 0.00 0.00 0.00 61 1014.1
20260510172605 87 134 1.7 2.6 0.00 0.00 0.00 65 1014.1
20260510172102 87 281 2.6 3.5 0.00 0.00 0.00 60 1014.0
20260510171558 88 279 5.2 7.8 0.00 0.00 0.00 56 1014.2
20260510171056 88 238 2.6 3.5 0.00 0.00 0.00 56 1014.0
20260510170552 88 287 2.6 3.5 0.00 0.00 0.00 57 1014.0
20260510170049 89 260 1.7 3.5 0.00 0.00 0.00 56 1014.0
20260510165544 90 248 1.7 2.6 0.00 0.00 0.00 54 1014.1
20260510165041 92 221 0.9 1.7 0.00 0.00 0.00 51 1014.1
20260510164538 91 192 1.7 1.7 0.00 0.00 0.00 52 1014.3
20260510164034 89 195 0.9 2.6 0.00 0.00 0.00 57 1014.3
20260510163530 90 231 1.7 5.2 0.00 0.00 0.00 54 1014.6
20260510163026 91 142 2.6 3.5 0.00 0.00 0.00 53 1014.3
20260510162522 90 208 1.7 2.6 0.00 0.00 0.00 56 1014.7
20260510162018 91 208 1.7 2.6 0.00 0.00 0.00 53 1014.6
20260510161514 91 151 1.7 2.6 0.00 0.00 0.00 55 1014.7
20260510161011 90 219 0.9 2.6 0.00 0.00 0.00 54 1014.8
20260510160509 90 279 1.7 3.5 0.00 0.00 0.00 55 1014.6
20260510160008 90 234 0.9 2.6 0.00 0.00 0.00 55 1014.7
20260510155504 88 171 0.9 0.9 0.00 0.00 0.00 59 1014.6
20260510155001 88 231 2.6 2.6 0.00 0.00 0.00 58 1014.7
20260510154457 87 175 1.7 1.7 0.00 0.00 0.00 59 1014.7
20260510153956 87 229 1.7 1.7 0.00 0.00 0.00 59 1014.8
20260510153452 88 163 0.9 1.7 0.00 0.00 0.00 61 1014.8
20260510152949 89 229 0.9 2.6 0.00 0.00 0.00 57 1014.9
20260510152446 89 180 2.6 3.5 0.00 0.00 0.00 58 1014.7
20260510151943 88 159 2.6 3.5 0.00 0.00 0.00 61 1014.7
20260510151440 88 147 1.7 2.6 0.00 0.00 0.00 60 1014.9
20260510150936 87 201 4.3 5.2 0.00 0.00 0.00 62 1015.0
20260510150432 87 178 0.9 0.9 0.00 0.00 0.00 61 1014.6
20260510145928 86 212 0.9 1.7 0.00 0.00 0.00 64 1015.0
20260510145425 87 197 0.9 2.6 0.00 0.00 0.00 63 1014.9
20260510144921 86 156 0.9 1.7 0.00 0.00 0.00 65 1014.7
20260510144418 85 192 1.7 1.7 0.00 0.00 0.00 65 1014.8
20260510143913 85 153 0.9 1.7 0.00 0.00 0.00 67 1014.7
20260510143409 86 252 1.7 3.5 0.00 0.00 0.00 65 1014.8
20260510142906 85 200 0.9 1.7 0.00 0.00 0.00 66 1014.9
20260510142403 85 226 1.7 2.6 0.00 0.00 0.00 67 1014.7
20260510141859 84 186 1.7 1.7 0.00 0.00 0.00 67 1014.8
20260510141357 85 196 0.9 1.7 0.00 0.00 0.00 69 1014.8
20260510140854 84 226 1.7 2.6 0.00 0.00 0.00 68 1014.8
20260510140350 84 204 1.7 1.7 0.00 0.00 0.00 68 1014.7
20260510135849 84 155 0.9 3.5 0.00 0.00 0.00 69 1014.6
20260510135345 84 242 0.9 3.5 0.00 0.00 0.00 70 1014.8
20260510134843 83 176 0.9 1.7 0.00 0.00 0.00 70 1014.6
20260510134339 83 216 1.7 1.7 0.00 0.00 0.00 73 1014.6
20260510133835 82 217 0.9 1.7 0.00 0.00 0.00 72 1014.4
20260510133332 82 162 0.9 2.6 0.00 0.00 0.00 74 1014.5
20260510132827 82 209 1.7 2.6 0.00 0.00 0.00 73 1014.4
20260510132326 81 166 0.0 0.9 0.00 0.00 0.00 77 1014.4
20260510131822 80 154 0.0 0.9 0.00 0.00 0.00 79 1014.3
20260510131320 79 193 0.9 1.7 0.00 0.00 0.00 79 1014.5
20260510130816 79 163 0.9 1.7 0.00 0.00 0.00 81 1014.4
20260510130313 78 175 0.9 1.7 0.00 0.00 0.00 83 1014.5
20260510125809 78 176 0.0 0.9 0.00 0.00 0.00 82 1014.6
20260510125307 77 182 0.9 0.9 0.00 0.00 0.00 85 1014.6
20260510124803 77 184 0.9 1.7 0.00 0.00 0.00 85 1014.4
20260510124300 76 197 0.9 0.9 0.00 0.00 0.00 86 1014.5
20260510123755 76 197 0.0 0.0 0.00 0.00 0.00 89 1014.4
20260510123251 75 198 0.0 0.9 0.00 0.00 0.00 90 1014.2
20260510122748 74 198 0.0 0.9 0.00 0.00 0.00 92 1014.3
20260510122244 73 198 0.0 0.9 0.00 0.00 0.00 93 1014.1
20260510121740 73 200 0.9 1.7 0.00 0.00 0.00 94 1014.0
20260510121238 73 179 0.0 0.9 0.00 0.00 0.00 95 1014.0
20260510120735 72 154 0.0 0.9 0.00 0.00 0.00 96 1013.7
20260510120232 72 154 0.9 0.9 0.00 0.00 0.00 96 1013.6
20260510115727 72 154 0.0 0.0 0.00 0.00 0.00 97 1013.6
20260510115226 72 154 0.0 0.9 0.00 0.00 0.00 97 1013.5
20260510114720 71 154 0.0 0.0 0.00 0.00 0.00 97 1013.6
20260510114218 71 154 0.0 0.0 0.00 0.00 0.00 97 1013.6
20260510113713 71 154 0.0 0.0 0.00 0.00 0.00 97 1013.4
20260510113210 71 154 0.0 0.0 0.00 0.00 0.00 97 1013.3
20260510112706 71 154 0.0 0.0 0.00 0.00 0.00 97 1013.4
20260510112204 71 154 0.0 0.0 0.00 0.00 0.00 97 1013.3
20260510111659 71 154 0.0 0.0 0.00 0.00 0.00 97 1013.0
20260510111157 71 154 0.0 0.0 0.00 0.00 0.00 97 1013.0
20260510110656 71 154 0.0 0.0 0.00 0.00 0.00 97 1013.1
20260510110154 71 154 0.0 0.0 0.00 0.00 0.00 97 1013.0
20260510105650 71 154 0.0 0.0 0.00 0.00 0.00 97 1012.7
20260510105150 71 154 0.0 0.0 0.00 0.00 0.00 96 1012.7
20260510104647 71 154 0.0 0.0 0.00 0.00 0.00 96 1012.8
20260510104143 71 154 0.0 0.0 0.00 0.00 0.00 96 1012.5
20260510103640 71 154 0.0 0.0 0.00 0.00 0.00 96 1012.5
20260510103137 71 154 0.0 0.0 0.00 0.00 0.00 96 1012.5
20260510102632 71 154 0.0 0.0 0.00 0.00 0.00 96 1012.6
20260510102128 71 154 0.0 0.0 0.00 0.00 0.00 96 1012.4
20260510101626 71 154 0.0 0.0 0.00 0.00 0.00 96 1012.5
20260510101124 71 154 0.0 0.0 0.00 0.00 0.00 96 1012.4
20260510100620 71 154 0.0 0.0 0.00 0.00 0.00 96 1012.1
20260510100117 71 154 0.0 0.0 0.00 0.00 0.00 95 1012.2
20260510095613 71 154 0.0 0.0 0.00 0.00 0.00 95 1012.2
20260510095113 72 154 0.0 0.0 0.00 0.00 0.00 95 1012.3
20260510094612 72 154 0.0 0.0 0.00 0.00 0.00 95 1012.2
20260510094108 72 154 0.0 0.0 0.00 0.00 0.00 95 1012.0
20260510093604 72 154 0.0 0.0 0.00 0.00 0.00 95 1011.9
20260510093101 72 154 0.0 0.0 0.00 0.00 0.00 95 1011.8
20260510092558 72 154 0.0 0.9 0.00 0.00 0.00 95 1011.9
20260510092057 72 154 0.0 0.0 0.00 0.00 0.00 95 1011.9
20260510091555 72 154 0.0 0.0 0.00 0.00 0.00 95 1011.8
20260510091050 72 154 0.0 0.0 0.00 0.00 0.00 95 1011.7
20260510090548 72 154 0.0 0.0 0.00 0.00 0.00 94 1011.7
20260510090043 72 154 0.0 0.0 0.00 0.00 0.00 94 1011.7
20260510085538 72 154 0.0 0.0 0.00 0.00 0.00 94 1011.6
20260510085035 72 154 0.9 0.9 0.00 0.00 0.00 94 1011.3
20260510084531 72 154 0.0 0.0 0.00 0.00 0.00 94 1011.5
20260510084028 72 154 0.0 0.9 0.00 0.00 0.00 94 1011.2
20260510083525 72 148 0.0 0.9 0.00 0.00 0.00 94 1011.4
20260510083021 72 133 0.0 0.9 0.00 0.00 0.00 93 1011.3
20260510082518 72 132 0.9 1.7 0.00 0.00 0.00 93 1011.3
20260510082018 72 148 1.7 1.7 0.00 0.00 0.00 93 1011.3
20260510081514 72 157 0.9 0.9 0.00 0.00 0.00 94 1011.1
20260510081010 72 158 0.0 0.0 0.00 0.00 0.00 94 1011.3
20260510080509 72 158 0.0 0.0 0.00 0.00 0.00 94 1011.4
20260510080006 72 158 0.0 0.0 0.00 0.00 0.00 94 1011.4
20260510075503 72 156 0.9 0.9 0.00 0.00 0.00 94 1011.4
20260510075000 72 143 0.0 0.0 0.00 0.00 0.00 94 1011.4
20260510074458 72 80 1.7 2.6 0.00 0.00 0.00 94 1011.3
20260510073953 72 133 1.7 2.6 0.00 0.00 0.00 94 1011.4
20260510073449 72 119 0.9 1.7 0.00 0.00 0.00 94 1011.3
20260510072946 72 141 0.9 2.6 0.00 0.00 0.00 94 1011.0
20260510072443 72 143 2.6 2.6 0.00 0.00 0.00 94 1011.0
20260510071938 72 148 0.0 1.7 0.00 0.00 0.00 94 1011.2
20260510071434 72 137 0.9 1.7 0.00 0.00 0.00 94 1011.6
20260510070933 72 139 0.9 1.7 0.00 0.00 0.00 94 1011.2
20260510070430 72 131 1.7 1.7 0.00 0.00 0.00 94 1011.4
20260510065925 71 145 0.9 1.7 0.00 0.00 0.00 94 1011.6
20260510065422 71 160 0.9 1.7 0.00 0.00 0.00 94 1011.5
20260510064918 71 135 0.0 1.7 0.00 0.00 0.00 94 1011.5
20260510064417 71 140 0.9 1.7 0.00 0.00 0.00 94 1011.5
20260510063913 71 127 0.9 1.7 0.00 0.00 0.00 94 1011.8
20260510063409 71 121 0.9 1.7 0.00 0.00 0.00 94 1011.9
20260510062907 71 174 0.0 0.0 0.00 0.00 0.00 94 1011.9
20260510062401 71 174 0.9 1.7 0.00 0.00 0.00 94 1011.9
20260510061857 71 175 0.0 0.9 0.00 0.00 0.00 94 1012.1
20260510061354 71 183 0.9 0.9 0.00 0.00 0.00 94 1012.1
20260510060850 71 183 0.0 0.0 0.00 0.00 0.00 94 1012.3
20260510060347 71 183 0.9 0.9 0.00 0.00 0.00 94 1012.3
20260510055844 71 183 0.9 0.9 0.00 0.00 0.00 94 1012.3
20260510055343 70 183 0.0 0.9 0.00 0.00 0.00 94 1012.4
20260510054842 70 183 0.0 0.0 0.00 0.00 0.00 94 1012.5
20260510054338 70 183 0.0 0.0 0.00 0.00 0.00 95 1012.5
20260510053833 71 183 0.0 0.0 0.00 0.00 0.00 94 1012.5
20260510053329 71 183 0.0 0.0 0.00 0.00 0.00 94 1012.8
20260510052825 71 183 0.0 0.0 0.00 0.00 0.00 94 1012.9
20260510052321 71 183 0.0 0.0 0.00 0.00 0.00 94 1012.8
20260510051818 71 183 0.0 0.0 0.00 0.00 0.00 93 1012.9
20260510051315 71 183 0.9 0.9 0.00 0.00 0.00 94 1012.9
20260510050812 71 183 0.0 0.0 0.00 0.00 0.00 94 1012.9
20260510050308 71 183 0.0 0.9 0.00 0.00 0.00 94 1013.3
20260510045805 71 183 0.0 0.0 0.00 0.00 0.00 94 1013.0
20260510045305 71 183 0.0 0.0 0.00 0.00 0.00 94 1013.3
20260510044759 71 183 0.0 0.0 0.00 0.00 0.00 94 1013.2
20260510044256 71 183 0.0 0.0 0.00 0.00 0.00 94 1013.3
20260510043752 71 183 0.0 0.0 0.00 0.00 0.00 93 1013.3
20260510043248 71 183 0.0 0.0 0.00 0.00 0.00 93 1013.5
20260510042746 71 183 0.0 0.0 0.00 0.00 0.00 93 1013.6
20260510042241 71 183 0.0 0.0 0.00 0.00 0.00 93 1013.5
20260510041738 71 183 0.0 0.9 0.00 0.00 0.00 92 1013.6
20260510041236 71 183 0.0 0.0 0.00 0.00 0.00 93 1013.7
20260510040733 71 183 0.0 0.0 0.00 0.00 0.00 93 1013.4
20260510040230 72 183 0.9 0.9 0.00 0.00 0.00 93 1013.4
20260510035724 71 183 0.0 0.0 0.00 0.39 0.39 93 1013.4
20260510035221 71 183 0.0 0.9 0.00 0.39 0.39 93 1013.4
20260510034717 71 184 0.0 0.0 0.00 0.39 0.39 94 1013.4
20260510034215 71 184 0.0 0.0 0.00 0.39 0.39 94 1013.5
20260510033711 71 184 0.0 0.0 0.00 0.39 0.39 94 1013.6
20260510033209 71 183 0.0 0.9 0.00 0.39 0.39 94 1013.6
20260510032705 71 182 0.0 0.0 0.00 0.39 0.39 94 1013.5
20260510032201 71 182 0.0 0.9 0.00 0.39 0.39 94 1013.3
20260510031655 71 181 0.0 0.0 0.00 0.39 0.39 94 1013.3
20260510031153 71 181 0.0 0.0 0.00 0.39 0.39 94 1013.6
20260510030652 71 180 0.0 0.0 0.00 0.39 0.39 94 1013.3
20260510030150 71 180 0.0 0.0 0.00 0.39 0.39 94 1013.3
20260510025647 71 180 0.0 0.0 0.00 0.39 0.39 94 1013.3
20260510025144 71 180 0.0 0.0 0.00 0.39 0.39 94 1013.3
20260510024641 71 180 0.0 0.0 0.17 0.39 0.39 94 1013.2
20260510024138 71 180 0.0 0.9 0.28 0.39 0.39 94 1012.9
20260510023633 71 179 0.0 0.0 0.19 0.36 0.36 94 1013.1
20260510023131 71 179 0.0 0.9 0.12 0.34 0.34 93 1013.0
20260510022631 71 179 0.0 0.9 0.12 0.33 0.33 93 1012.9
20260510022126 71 179 0.0 0.9 0.12 0.32 0.32 93 1012.9
20260510021622 71 178 0.0 0.9 0.12 0.31 0.31 92 1012.9
20260510021120 72 180 0.0 0.9 0.19 0.30 0.30 90 1012.8
20260510020619 72 174 0.9 0.9 0.24 0.29 0.29 89 1012.7
20260510020115 73 170 0.0 0.9 0.12 0.27 0.27 86 1012.6
20260510015612 73 79 0.0 0.0 0.00 0.25 0.25 83 1012.6
20260510015108 73 79 0.0 0.0 0.00 0.25 0.25 83 1012.5
20260510014604 74 79 0.0 0.0 0.00 0.25 0.25 83 1012.6
20260510014102 74 79 0.0 0.0 0.00 0.25 0.25 82 1012.4
20260510013555 74 79 0.0 0.0 0.00 0.25 0.25 81 1012.6
20260510013052 74 79 0.0 0.0 0.00 0.25 0.25 81 1012.5
20260510012551 74 79 0.0 0.0 0.00 0.25 0.25 80 1012.6
20260510012048 74 79 0.0 0.0 0.00 0.25 0.25 80 1012.4
20260510011547 74 79 0.0 0.0 0.00 0.25 0.25 80 1012.7
20260510011044 74 79 0.0 0.0 0.00 0.25 0.25 80 1012.4
20260510010540 74 79 0.0 0.0 0.00 0.25 0.25 80 1012.2
20260510010037 74 79 0.0 0.9 0.00 0.25 0.25 79 1012.0
20260510005533 74 37 0.0 0.0 0.00 0.25 0.25 79 1012.1
20260510005031 75 37 0.0 0.0 0.00 0.25 0.25 79 1012.1
20260510004528 75 37 0.0 0.0 0.00 0.25 0.25 78 1011.9
20260510004027 75 37 0.0 0.9 0.00 0.25 0.25 78 1011.5
20260510003523 75 37 0.9 0.9 0.00 0.25 0.25 78 1011.7
20260510003018 75 36 0.0 0.9 0.00 0.25 0.25 77 1011.8
20260510002514 75 42 1.7 1.7 0.00 0.25 0.25 77 1011.8
20260510002011 75 27 0.0 0.9 0.00 0.25 0.25 77 1011.7
20260510001508 75 6 0.0 1.7 0.00 0.25 0.25 76 1011.8
20260510001006 75 8 0.9 1.7 0.00 0.25 0.25 75 1011.8
20260510000501 75 35 1.7 2.6 0.00 0.25 0.25 75 1011.7
20260509235958 75 10 1.7 1.7 0.00 0.25 0.25 75 1011.7
20260509235455 76 3 0.9 0.9 0.00 0.25 0.25 75 1011.6
20260509234951 76 44 0.9 1.7 0.00 0.25 0.25 74 1011.5
20260509234448 76 40 0.9 1.7 0.00 0.25 0.25 74 1011.5
20260509233946 76 342 1.7 2.6 0.00 0.25 0.25 74 1011.5
20260509233443 76 293 1.7 2.6 0.00 0.25 0.25 75 1011.5
20260509232939 76 268 2.6 2.6 0.00 0.25 0.25 75 1011.5
20260509232437 76 337 1.7 3.5 0.00 0.25 0.25 75 1011.4
20260509231932 77 273 2.6 2.6 0.00 0.25 0.25 76 1011.5
20260509231429 77 278 1.7 2.6 0.00 0.25 0.25 77 1011.5
20260509230928 77 39 0.0 2.6 0.00 0.25 0.25 77 1011.4
20260509230424 77 290 3.5 3.5 0.00 0.25 0.25 76 1011.6
20260509225920 77 6 1.7 2.6 0.00 0.25 0.25 77 1011.6
20260509225417 77 325 4.3 5.2 0.00 0.25 0.25 76 1011.5
20260509224913 77 314 2.6 6.1 0.00 0.25 0.25 76 1011.3
20260509224414 78 332 2.6 3.5 0.00 0.25 0.25 76 1011.4
20260509223911 80 316 3.5 6.1 0.00 0.25 0.25 75 1011.3
20260509223408 81 32 2.6 3.5 0.00 0.25 0.25 73 1011.2
20260509222905 82 40 0.9 2.6 0.00 0.25 0.25 69 1010.9
20260509222400 82 270 3.5 5.2 0.00 0.25 0.25 65 1010.9
20260509221855 82 335 0.9 1.7 0.00 0.25 0.25 65 1010.8
20260509221353 82 339 3.5 5.2 0.00 0.25 0.25 65 1010.8
20260509220849 82 323 1.7 1.7 0.00 0.25 0.25 65 1010.7
20260509220345 82 281 1.7 2.6 0.00 0.25 0.25 64 1010.6
20260509215840 82 276 0.9 2.6 0.00 0.25 0.25 64 1010.7
20260509215337 83 279 3.5 3.5 0.00 0.25 0.25 63 1010.7
20260509214835 83 339 1.7 2.6 0.00 0.25 0.25 65 1010.5
20260509214332 83 329 1.7 2.6 0.00 0.25 0.25 64 1010.6
20260509213829 83 338 2.6 2.6 0.00 0.25 0.25 63 1010.4
20260509213324 83 293 1.7 3.5 0.00 0.25 0.25 63 1010.4
20260509212822 83 263 2.6 3.5 0.00 0.25 0.25 63 1010.4
20260509212320 84 277 1.7 1.7 0.00 0.25 0.25 64 1010.4
20260509211815 84 342 0.9 1.7 0.00 0.25 0.25 65 1010.3
20260509211311 84 5 4.3 6.1 0.00 0.25 0.25 64 1010.2
20260509210808 84 283 0.9 1.7 0.00 0.25 0.25 63 1010.0
20260509210306 84 269 2.6 3.5 0.00 0.25 0.25 62 1010.2
20260509205805 85 281 1.7 1.7 0.00 0.25 0.25 63 1010.3
20260509205300 85 293 1.7 3.5 0.00 0.25 0.25 62 1010.2
20260509204756 85 267 0.9 2.6 0.00 0.25 0.25 62 1010.3
20260509204252 85 278 1.7 3.5 0.00 0.25 0.25 63 1010.2
20260509203748 85 276 1.7 1.7 0.00 0.25 0.25 61 1010.2
20260509203247 85 267 1.7 1.7 0.00 0.25 0.25 60 1010.3
20260509202742 85 279 2.6 2.6 0.00 0.25 0.25 60 1010.1
20260509202239 85 275 2.6 5.2 0.00 0.25 0.25 58 1010.2
20260509201738 84 252 0.9 0.9 0.00 0.25 0.25 64 1010.2
20260509201235 84 259 0.0 1.7 0.00 0.25 0.25 64 1010.2
20260509200732 83 265 1.7 2.6 0.00 0.25 0.25 65 1010.2
20260509200227 82 277 1.7 2.6 0.00 0.25 0.25 65 1010.3
20260509195723 82 269 0.0 0.9 0.00 0.25 0.25 72 1010.3
20260509195218 82 268 0.9 0.9 0.00 0.25 0.25 71 1010.2
20260509194713 82 269 0.9 0.9 0.00 0.25 0.25 72 1010.3
20260509194210 81 269 0.0 0.9 0.00 0.25 0.25 74 1010.2
20260509193706 81 268 0.9 1.7 0.00 0.25 0.25 75 1010.3
20260509193206 81 267 0.0 0.9 0.00 0.25 0.25 78 1010.3
20260509192703 81 250 1.7 2.6 0.00 0.25 0.25 77 1010.3
20260509192158 81 244 1.7 1.7 0.00 0.25 0.25 82 1010.4
20260509191653 80 244 0.0 0.0 0.00 0.25 0.25 86 1010.5
20260509191150 80 243 0.0 0.9 0.00 0.25 0.25 87 1010.5
20260509190646 79 243 0.0 0.9 0.00 0.25 0.25 86 1010.8
20260509190144 79 244 0.9 0.9 0.00 0.25 0.25 87 1010.8
20260509185641 78 244 0.0 0.0 0.00 0.25 0.25 89 1010.7
20260509185137 78 244 0.0 0.9 0.00 0.25 0.25 86 1010.6
20260509184635 77 59 0.9 1.7 0.00 0.25 0.25 86 1010.6
20260509184132 77 234 0.0 1.7 0.00 0.25 0.25 88 1010.8
20260509183628 77 50 0.9 1.7 0.00 0.25 0.25 86 1010.8
20260509183123 77 37 0.9 1.7 0.00 0.25 0.25 90 1010.9
20260509182619 77 116 0.9 0.9 0.00 0.25 0.25 91 1011.1
20260509182117 77 179 0.0 0.0 0.00 0.25 0.25 89 1011.0
20260509181615 76 179 0.0 0.0 0.00 0.25 0.25 89 1010.9
20260509181112 76 180 0.0 0.0 0.00 0.25 0.25 90 1010.9
20260509180608 75 180 0.0 0.0 0.00 0.25 0.25 89 1011.0
20260509180105 75 180 0.0 0.9 0.00 0.25 0.25 88 1011.2
20260509175600 76 106 0.0 0.9 1.13 0.25 0.25 84 1011.3
20260509175058 80 102 1.7 5.2 1.44 0.24 0.24 76 1011.4
20260509174554 87 246 4.3 5.2 0.07 0.01 0.01 60 1011.3
20260509174049 88 207 0.9 1.7 0.00 0.00 0.00 55 1011.1